Location: Port Hueneme
(34.1478°N, 119.1951°W)
Time: 14:19:45
(UTC+00:00)

Cosmos 1354 Rocket - Pass Details

Date: 25 November 2025
Orbit: 761 x 778 km, 74.0° (Epoch: 10 December)

Event Time Altitude Azimuth Distance (km) Brightness Sun altitude
Rises 13:11:37 0° 5° (N) 3,235 7.2 -18.0°
Reaches altitude 10° 13:15:28 10° 33° (NNE) 2,301 6.7 -17.2°
Maximum altitude 13:17:46 13° 59° (ENE) 2,106 6.9 -16.7°
Drops below altitude 10° 13:20:03 10° 86° (E) 2,293 7.6 -16.3°
Sets 13:23:51 0° 114° (ESE) 3,212 9.0 -15.5°
